Regional Weather Roundup
Issued by NWS

Home | Current Version | Previous Version | Text Only | Print | Product List | Glossary Off
Versions: 1 2 3 4 5 6 7 8 9 10 11 12 13 14 15 16 17 18 19 20 21 22 23 24 25 26 27 28 29 30 31 32 33 34 35 36 37 38 39 40 41 42 43 44 45 46 47 48 49 50

000
ASUS43 KMPX 221010
RWRMN
WEATHER ROUNDUP FOR MINNESOTA
NATIONAL WEATHER SERVICE TWIN CITIES/CHANHASSEN MN
500 AM CDT SUN APR 22 2018


NOTE: "FAIR" INDICATES FEW OR NO CLOUDS BELOW 12,000 FEET WITH NO
SIGNIFICANT WEATHER AND/OR OBSTRUCTIONS TO VISIBILITY. N/A MEANS
CURRENT SKY AND/OR WEATHER CONDITIONS ARE NOT AVAILABLE.

MNZ060>063-068>070-221100-
   Twin Cities Metro

CITY           SKY/WX    TMP DP  RH WIND       PRES   REMARKS
TWIN CITIES    FAIR      38  32  79 CALM      30.33S
ST PAUL        FAIR      35  32  88 E3        30.34S
CRYSTAL        FAIR      32  25  75 CALM      30.31S
BLAINE         FAIR      34  28  80 CALM      30.32S
LAKEVILLE      FAIR      28  28 100 CALM      30.33R
EDEN PRAIRIE   FAIR      35  28  75 CALM      30.31S
SOUTH ST PAUL  FAIR      34  30  83 CALM      30.33S
LAKE ELMO      FAIR      32  30  93 CALM      30.34S
$$
MNZ001>005-007-008-013>017-022>024-027-028-221100-
   Northwest Minnesota

CITY           SKY/WX    TMP DP  RH WIND       PRES   REMARKS
BEMIDJI        FAIR      29  26  88 S3        30.29S
HALLOCK        FAIR      41  37  87 S13       30.19F
ROSEAU         FAIR      39  36  87 S7        30.24R
WARROAD        FAIR      41  37  87 S5        30.24F
THIEF RVR FALL FAIR      38  34  85 S10       30.26S
CROOKSTON      FAIR      39  36  87 S10       30.26F
FOSSTON        FAIR      34  28  80 S8        30.28S WCI  27
DETROIT LAKES  FAIR      37  32  81 CALM      30.30R
MOORHEAD       FAIR      34  32  93 SE6       30.29S WCI  29
PARK RAPIDS    FAIR      34  29  82 CALM      30.29S
MAHNOMEN       FAIR      34  31  88 S7        30.28S WCI  28
$$
MNZ006-009>011-018-025>026-221100-
   North Central Minnesota

CITY           SKY/WX    TMP DP  RH WIND       PRES   REMARKS
BAUDETTE       FAIR      37  29  72 S6        30.26R
FLAG ISLAND    FAIR      36  30  80 S8        30.23S
INTL FALLS     FAIR      37  24  59 CALM      30.29R
WASKISH        FAIR      39  30  70 S3        30.28S
BIG FORK       FAIR      28  21  74 CALM      30.30S
LONGVILLE      FAIR      27  23  86 CALM      30.32R
GRAND RAPIDS   FAIR      29  22  75 CALM      30.33S
CRANE LAKE     FAIR      23  21  93 CALM      30.33S
ORR            FAIR      36  16  44 CALM      30.29S
COOK           FAIR      27  21  80 CALM      30.32R
WALKER         FAIR      38  31  75 CALM      30.30S
$$
MNZ012-019>021-037-221100-
   Northeast Minnesota

CITY           SKY/WX    TMP DP  RH WIND       PRES   REMARKS
DULUTH         FAIR      35  20  54 CALM      30.32R
ELY            FAIR      25  19  80 CALM      30.33R
HIBBING        FAIR      23  22  96 CALM      30.32R
EVELETH        FAIR      25  22  89 CALM      30.34R
DULUTH HARBOR  FAIR      30  27  86 CALM      30.35S
TWO HARBORS    FAIR      27  21  80 CALM      30.31S
SILVER BAY     FAIR      25  21  86 CALM      30.32R
GRAND MARAIS     N/A     29  22  75 NW3       30.34S
G MARAIS ARPRT FAIR      28  14  54 CALM      30.33S
$$
MNZ029>031-032-039>041-046>048-054>057-064-221100-
   West Central Minnesota

CITY           SKY/WX    TMP DP  RH WIND       PRES   REMARKS
FERGUS FALLS   FAIR      37  30  75 SE5       30.28F
WHEATON        CLEAR     30  28  93 SE5       30.31S WCI  25
MORRIS         CLEAR     34  32  93 E6        30.30R FOG     WCI  29
ALEXANDRIA     FAIR      36  31  82 S3        30.31S
ELBOW LAKE     FAIR      35  31  87 CALM      30.31R
WADENA         FAIR      30  28  93 CALM      30.30S
GLENWOOD       FAIR      34  34 100 CALM      30.31S
APPLETON       CLEAR     34  30  86 NE3       30.30S FOG
BENSON         CLEAR     28  28 100 CALM      30.32S FOG
ORTONVILLE     CLEAR     34  30  86 E3        30.29S
MADISON        CLEAR     36  32  87 E3        30.30R
WILLMAR        FAIR      34  30  86 CALM      30.33S
$$
MNZ033>034-036-042>043-049>051-058-059-221100-
   Central Minnesota

CITY           SKY/WX    TMP DP  RH WIND       PRES   REMARKS
ST CLOUD       FAIR      29  27  92 N3        30.32R
SAUK CENTRE    FAIR      30  29  95 CALM      30.32S
PAYNESVILLE    FAIR      31  30  96 CALM      30.32S
AITKIN         FAIR      23  21  93 CALM      30.31S
PINE RIVER     FAIR      27  25  93 CALM      30.34S
BRAINERD       FAIR      28  24  85 CALM      30.32S
STAPLES        FAIR      28  27  93 CALM      30.31F
LONG PRAIRIE   FAIR      30  28  93 CALM      30.32S FOG
LITTLE FALLS   FAIR      30  27  86 CALM      30.33S
LITCHFIELD     FAIR      34  34 100 CALM      30.32R
BUFFALO        FAIR      31  28  86 CALM      30.33S
MAPLE LAKE     FAIR      30  29  96 CALM      30.33R
HUTCHINSON     FAIR      33  32  98 CALM      30.33R
$$
MNZ037-044-045-052-053-221100-
   East Central Minnesota

CITY           SKY/WX    TMP DP  RH WIND       PRES   REMARKS
PRINCETON      FAIR      28  25  86 CALM      30.33R
MORA           FAIR      27  23  86 CALM      30.34S
CAMBRIDGE      FAIR      28  21  74 CALM      30.32S
RUSH CITY      FAIR      28  25  86 CALM      30.33S
MOOSE LAKE     FAIR      28  21  74 CALM      30.31S
HINCKLEY       FAIR      28  23  80 CALM      30.33R
CLOQUET        FAIR      27  19  74 CALM      30.33R
MCGREGOR       FAIR      28  23  80 CALM      30.33R
$$
MNZ071>073-080-081-089-090-097-098-221100-
   Southwest Minnesota

CITY           SKY/WX    TMP DP  RH WIND       PRES   REMARKS
MONTEVIDEO     CLEAR     34  32  93 SE5       30.31R WCI  30
GRANITE FALLS  CLEAR     37  33  86 E3        30.32S
CANBY          CLEAR     32  31  95 CALM      30.30S
MARSHALL       PTCLDY    32  28  85 CALM      30.30R
REDWOOD FALLS  CLEAR     34  33  96 E3        30.30S
OLIVIA         CLEAR     34  32  93 CALM      30.31R
PIPESTONE      CLOUDY   N/A N/A N/A SE7       30.27S
WINDOM         PTCLDY    36  21  55 CALM      30.31R
WORTHINGTON    PTCLDY    33  30  88 CALM      30.30R
JACKSON        CLOUDY    34  32  93 CALM      30.31R
TRACY          CLOUDY    40  34  80 S7        30.29R
SLAYTON        CLEAR     34  31  89 CALM      30.30R
$$
MNZ065>067-074>077-082>085-091>093-221100-
   South Central Minnesota

CITY           SKY/WX    TMP DP  RH WIND       PRES   REMARKS
NEW ULM        CLEAR     36  32  87 E5        30.31S
ST JAMES       PTCLDY    30  30 100 CALM      30.33R FOG
FAIRMONT       CLOUDY    34  30  85 CALM      30.31S
GLENCOE        FAIR      33  33 100 CALM      30.32R
OWATONNA       FAIR      34  30  86 SE3       30.32R
WASECA         FAIR      36  32  87 CALM      30.33S
ALBERT LEA     FAIR      37  28  70 CALM      30.32S
$$
MNZ078>079-086>088-094>096-221100-
   Southeast Minnesota

CITY           SKY/WX    TMP DP  RH WIND       PRES   REMARKS
ROCHESTER      MOCLDY    37  31  78 SE6       30.33R
RED WING       FAIR      30  27  86 CALM      30.34R
STANTON        FAIR      32  30  92 CALM      30.32S
DODGE CENTER   FAIR      36  32  87 SE6       30.33R
WINONA         FAIR      34  32  93 CALM      30.34R
AUSTIN         FAIR      37  30  75 CALM      30.32S
PRESTON        CLOUDY    39  32  77 SE3       30.33S
$$
ABBREVIATIONS USED IN REMARKS
   TC - TEMPERATURES IN CELSIUS
  WCI - WIND CHILL INDEX
   HX - HEAT INDEX
  VSB - VISIBILITY
$$




USA.gov is the U.S. government's official web portal to all federal, state and local government web resources and services.